Hourly Data Report for August 14, 2003

TORONTO CITY
ONTARIO

43°40'00.000" N
79°24'00.000" W
112.50 m
6158355
71508
XTO

Download Data

Hourly Data (August 2003)
Hourly Data Report for August 14, 2003
TIME
LST
Temp Definition
°C
Dew Point Definition
°C
Rel Hum Definition
%
Precip. Amount Definition
mm

Wind Dir Definition
10's deg

Wind Spd Definition
km/h
Visibility Definition
km
Stn Press Definition
kPa
Hmdx Definition


Wind Chill Definition


Weather Definition


00:00 23.4 18.9 76   LegendMM LegendMM LegendMM 101.30 30   LegendNANA
01:00 23.6 19.6 78   LegendMM LegendMM LegendMM 101.32 31   LegendNANA
02:00 23.3 19.1 77   LegendMM LegendMM LegendMM 101.34 30   LegendNANA
03:00 23.2 18.2 73   LegendMM LegendMM LegendMM 101.38 29   LegendNANA
04:00 22.4 17.2 72   LegendMM LegendMM LegendMM 101.39 28   LegendNANA
05:00 22.4 16.4 69   LegendMM LegendMM LegendMM 101.41 27   LegendNANA
06:00 21.2 17.2 78   LegendMM LegendMM LegendMM 101.45 27   LegendNANA
07:00 22.8 18.0 74   LegendMM LegendMM LegendMM 101.46 29   LegendNANA
08:00 25.1 16.4 59   LegendMM LegendMM LegendMM 101.48 30   LegendNANA
09:00 26.9 16.5 53   LegendMM LegendMM LegendMM 101.43 32   LegendNANA
10:00 27.8 15.6 47   LegendMM LegendMM LegendMM 101.43 32   LegendNANA
11:00 28.9 15.0 43   LegendMM LegendMM LegendMM 101.41 33   LegendNANA
12:00 30.3 12.5 34   LegendMM LegendMM LegendMM 101.35 33   LegendNANA
13:00 31.2 13.8 35   LegendMM LegendMM LegendMM 101.27 34   LegendNANA
14:00 31.3 16.7 42   LegendMM LegendMM LegendMM 101.21 36   LegendNANA
15:00 31.4 16.7 41   LegendMM LegendMM LegendMM 101.14 36   LegendNANA
16:00 31.0 17.1 43   LegendMM LegendMM LegendMM 101.10 36   LegendNANA
17:00 29.9 16.7 45   LegendMM LegendMM LegendMM 101.07 35   LegendNANA
18:00 29.3 17.2 48   LegendMM LegendMM LegendMM 101.06 35   LegendNANA
19:00 27.6 17.6 54   LegendMM LegendMM LegendMM 101.07 33   LegendNANA
20:00 27.1 18.2 58   LegendMM LegendMM LegendMM 101.07 33   LegendNANA
21:00 26.6 18.7 62   LegendMM LegendMM LegendMM 101.11 33   LegendNANA
22:00 25.7 19.0 67   LegendMM LegendMM LegendMM 101.09 32   LegendNANA
23:00 24.8 18.7 69   LegendMM LegendMM LegendMM 101.10 31   LegendNANA

Notes on Data Quality.

Legend

  • E = Estimated
  • M = Missing
  • NA = Not Available*
  • [empty] = Indicates an unobserved value
Date modified: